OpenBCM V1.13 (Linux)

Packet Radio Mailbox

DB0FHN

[JN59NK Nuernberg]

 Login: GUEST





  
I6KZR  > KEPLER   18.02.03 01:39l 1460 Lines 39193 Bytes #999 (0) @ WW
BID : 24299_IK6WID
Read: DB0FHN GUEST
Subj: Old Istantrak Keplerians #047
Path: DB0FHN<DB0ZWI<DB0HST<HB9OK<HA3PG<JE7YGF<7M3TJZ<ON0AR<IK6PYS<IK6PYS<
      I6ZLO<IK6WID
Sent: 030217/2137Z @:IK6WID.#AP.IMAR.ITA.EU #:24299 [MONTE URANO]  FBB7.00i
From: I6KZR@IK6WID.#AP.IMAR.ITA.EU
To  : KEPLER@WW


Satellite: OSCAR 7
Catalog number: 07530
Epoch time:      103044.66387538
Element set:     149 
Inclination:      101.7611 deg
RA of node:        92.4958 deg
Eccentricity:    0.0012295
Arg of perigee:    87.8730 deg
Mean anomaly:     272.3745 deg
Mean motion:   12.53564338 rev/day
Decay rate:   -2.9000E-007 rev/day^2
Epoch rev:           29257
Checksum:              321

Satellite: GOES 2
Catalog number: 10061
Epoch time:      103041.64344854
Element set:     84 
Inclination:       14.1321 deg
RA of node:        13.4869 deg
Eccentricity:    0.0012973
Arg of perigee:   199.7553 deg
Mean anomaly:     160.2330 deg
Mean motion:    0.99401033 rev/day
Decay rate:   -1.4600E-006 rev/day^2
Epoch rev:            3875
Checksum:              265

Satellite: GOES 3
Catalog number: 10953
Epoch time:      103044.94778704
Element set:     923 
Inclination:       13.4079 deg
RA of node:        17.2675 deg
Eccentricity:    0.0005387
Arg of perigee:   341.9261 deg
Mean anomaly:      18.1006 deg
Mean motion:    1.00279092 rev/day
Decay rate:   -9.0999E-007 rev/day^2
Epoch rev:            4345
Checksum:              309

Satellite: GOES 6
Catalog number: 14050
Epoch time:      103045.06044567
Element set:     423 
Inclination:       10.3954 deg
RA of node:        35.5327 deg
Eccentricity:    0.0003702
Arg of perigee:   343.9733 deg
Mean anomaly:      16.0992 deg
Mean motion:    1.00301517 rev/day
Decay rate:    4.5999E-007 rev/day^2
Epoch rev:           13059
Checksum:              382

Satellite: OSCAR 10
Catalog number: 14129
Epoch time:      103041.63642645
Element set:     916 
Inclination:       25.9157 deg
RA of node:       165.6251 deg
Eccentricity:    0.6028355
Arg of perigee:   326.7167 deg
Mean anomaly:       6.8087 deg
Mean motion:    2.05866882 rev/day
Decay rate:    1.1700E-006 rev/day^2
Epoch rev:           11990
Checksum:              308

Satellite: OSCAR 11 (UoSA
Catalog number: 14781
Epoch time:      103046.56476696
Element set:     71 
Inclination:       98.1172 deg
RA of node:        20.4637 deg
Eccentricity:    0.0008378
Arg of perigee:   216.2099 deg
Mean anomaly:     143.8545 deg
Mean motion:   14.77990856 rev/day
Decay rate:    1.9310E-005 rev/day^2
Epoch rev:            1579
Checksum:              336

Satellite: NOAA 10
Catalog number: 16969
Epoch time:      103047.02427372
Element set:     662 
Inclination:       98.7301 deg
RA of node:        41.1399 deg
Eccentricity:    0.0013420
Arg of perigee:    94.6052 deg
Mean anomaly:     265.6660 deg
Mean motion:   14.27063756 rev/day
Decay rate:    2.2700E-006 rev/day^2
Epoch rev:           85354
Checksum:              300

Satellite: GOES 7
Catalog number: 17561
Epoch time:      103044.65377119
Element set:     852 
Inclination:        7.5929 deg
RA of node:        55.5730 deg
Eccentricity:    0.0005493
Arg of perigee:   262.9595 deg
Mean anomaly:     241.6680 deg
Mean motion:    1.00251772 rev/day
Decay rate:    5.3999E-007 rev/day^2
Epoch rev:            4169
Checksum:              331

Satellite: COSMOS 1861
Catalog number: 18129
Epoch time:      103043.82529073
Element set:     199 
Inclination:       82.9262 deg
RA of node:       150.8051 deg
Eccentricity:    0.0010159
Arg of perigee:   242.7255 deg
Mean anomaly:     117.2863 deg
Mean motion:   13.72700628 rev/day
Decay rate:    9.1999E-007 rev/day^2
Epoch rev:           78372
Checksum:              337

Satellite: EUTELSAT 1-F4 
Catalog number: 18351
Epoch time:      103044.89056880
Element set:     40 
Inclination:        7.1880 deg
RA of node:        58.6916 deg
Eccentricity:    0.0006913
Arg of perigee:   200.5719 deg
Mean anomaly:     159.5335 deg
Mean motion:    0.98689370 rev/day
Decay rate:   -1.8499E-006 rev/day^2
Epoch rev:            4263
Checksum:              439

Satellite: NOAA 11
Catalog number: 19531
Epoch time:      103046.96531128
Element set:     500 
Inclination:       98.9022 deg
RA of node:       128.3568 deg
Eccentricity:    0.0011253
Arg of perigee:   206.7839 deg
Mean anomaly:     153.2753 deg
Mean motion:   14.14537000 rev/day
Decay rate:    2.4099E-006 rev/day^2
Epoch rev:           74243
Checksum:              293

Satellite: ASTRA 1A
Catalog number: 19688
Epoch time:      103044.87251794
Element set:     574 
Inclination:        1.3689 deg
RA of node:        94.7623 deg
Eccentricity:    0.0004433
Arg of perigee:   216.0800 deg
Mean anomaly:     151.9431 deg
Mean motion:    1.00274212 rev/day
Decay rate:    4.1000E-007 rev/day^2
Epoch rev:            3215
Checksum:              374

Satellite: OSCAR 14 (UOSA
Catalog number: 20437
Epoch time:      103047.12179274
Element set:     165 
Inclination:       98.2738 deg
RA of node:        90.8532 deg
Eccentricity:    0.0009997
Arg of perigee:   206.2661 deg
Mean anomaly:     153.8015 deg
Mean motion:   14.31237376 rev/day
Decay rate:    1.6799E-006 rev/day^2
Epoch rev:           68214
Checksum:              333

Satellite: OSCAR 15 (UOSA
Catalog number: 20438
Epoch time:      103046.64987680
Element set:     776 
Inclination:       98.2480 deg
RA of node:        79.5362 deg
Eccentricity:    0.0009039
Arg of perigee:   220.0855 deg
Mean anomaly:     139.9661 deg
Mean motion:   14.30197311 rev/day
Decay rate:    1.1600E-006 rev/day^2
Epoch rev:           68174
Checksum:              328

Satellite: OSCAR 16 (PACS
Catalog number: 20439
Epoch time:      103046.71770837
Element set:     852 
Inclination:       98.3186 deg
RA of node:       102.1352 deg
Eccentricity:    0.0010233
Arg of perigee:   214.4984 deg
Mean anomaly:     145.5534 deg
Mean motion:   14.31471010 rev/day
Decay rate:    1.8700E-006 rev/day^2
Epoch rev:           68212
Checksum:              281

Satellite: OSCAR 17 (DOVE
Catalog number: 20440
Epoch time:      103046.21798503
Element set:     727 
Inclination:       98.3378 deg
RA of node:       105.5413 deg
Eccentricity:    0.0010156
Arg of perigee:   216.6619 deg
Mean anomaly:     143.3871 deg
Mean motion:   14.31748603 rev/day
Decay rate:    2.0099E-006 rev/day^2
Epoch rev:           68212
Checksum:              300

Satellite: OSCAR 18 (WEBE
Catalog number: 20441
Epoch time:      103046.20940688
Element set:     12 
Inclination:       98.3336 deg
RA of node:       104.7456 deg
Eccentricity:    0.0011037
Arg of perigee:   215.2227 deg
Mean anomaly:     144.8227 deg
Mean motion:   14.31552521 rev/day
Decay rate:    1.8199E-006 rev/day^2
Epoch rev:           68210
Checksum:              281

Satellite: OSCAR 19 (LUSA
Catalog number: 20442
Epoch time:      103046.74730463
Element set:     964 
Inclination:       98.3482 deg
RA of node:       108.2814 deg
Eccentricity:    0.0011177
Arg of perigee:   214.1926 deg
Mean anomaly:     145.8530 deg
Mean motion:   14.31715981 rev/day
Decay rate:    2.1099E-006 rev/day^2
Epoch rev:           68223
Checksum:              310

Satellite: JAS 1B (FUJI 2
Catalog number: 20480
Epoch time:      103044.47860499
Element set:     462 
Inclination:       99.0470 deg
RA of node:         8.1790 deg
Eccentricity:    0.0540693
Arg of perigee:    15.4045 deg
Mean anomaly:     346.2813 deg
Mean motion:   12.83330218 rev/day
Decay rate:    2.9000E-007 rev/day^2
Epoch rev:           60986
Checksum:              299

Satellite: HST
Catalog number: 20580
Epoch time:      103046.49201389
Element set:     329 
Inclination:       28.4696 deg
RA of node:        58.0694 deg
Eccentricity:    0.0003945
Arg of perigee:   230.6660 deg
Mean anomaly:     219.8934 deg
Mean motion:   14.97811819 rev/day
Decay rate:    3.1550E-005 rev/day^2
Epoch rev:           50217
Checksum:              317

Satellite: EUTELSAT 2-F1
Catalog number: 20777
Epoch time:      103044.68190904
Element set:     30 
Inclination:        3.4895 deg
RA of node:        84.6118 deg
Eccentricity:    0.0001023
Arg of perigee:   281.9192 deg
Mean anomaly:      98.2408 deg
Mean motion:    1.00271519 rev/day
Decay rate:   -9.4000E-007 rev/day^2
Epoch rev:            2605
Checksum:              273

Satellite: FENGYUN 1B
Catalog number: 20788
Epoch time:      103046.17986682
Element set:     882 
Inclination:       99.0259 deg
RA of node:        28.3921 deg
Eccentricity:    0.0015103
Arg of perigee:   239.4444 deg
Mean anomaly:     120.5232 deg
Mean motion:   14.02133797 rev/day
Decay rate:   -1.0500E-006 rev/day^2
Epoch rev:           63706
Checksum:              298

Satellite: EUTELSAT 2-F2
Catalog number: 21056
Epoch time:      103046.68872131
Element set:     618 
Inclination:        2.7246 deg
RA of node:        87.9532 deg
Eccentricity:    0.0003121
Arg of perigee:   260.7722 deg
Mean anomaly:      93.0131 deg
Mean motion:    1.00277947 rev/day
Decay rate:    1.2100E-006 rev/day^2
Epoch rev:            3184
Checksum:              367

Satellite: INFORMATOR 1
Catalog number: 21087
Epoch time:      103044.17346432
Element set:     598 
Inclination:       82.9434 deg
RA of node:       321.4015 deg
Eccentricity:    0.0033772
Arg of perigee:   266.6023 deg
Mean anomaly:      93.1271 deg
Mean motion:   13.74925957 rev/day
Decay rate:    8.3999E-007 rev/day^2
Epoch rev:           60414
Checksum:              416

Satellite: COSMOS 2123
Catalog number: 21089
Epoch time:      103044.88149015
Element set:     490 
Inclination:       82.9234 deg
RA of node:       184.8530 deg
Eccentricity:    0.0028080
Arg of perigee:   301.7096 deg
Mean anomaly:      58.1322 deg
Mean motion:   13.74403715 rev/day
Decay rate:    7.5000E-007 rev/day^2
Epoch rev:           60314
Checksum:              287

